Location: Central Falls
(41.8900°N, 71.3929°W)
Time: 03:33:11
(UTC+00:00)

Vanguard 2 - Pass Details

Date: 08 December 2023
Orbit: 554 x 2918 km, 32.9° (Epoch: 01 March)

Event Time Altitude Azimuth Distance (km) Brightness Sun altitude
Rises 02:18:39 0° 251° (WSW) 6,739 12.7 -55.3°
Reaches altitude 10° 02:23:14 10° 248° (WSW) 5,745 12.2 -56.1°
Enters shadow 02:32:39 37° 233° (SW) 3,804 10.9 -57.7°
Maximum altitude 02:40:16 59° 175° (S) 2,847 - -59.0°
Drops below altitude 10° 02:52:42 10° 100° (E) 4,327 - -60.9°
Sets 02:55:37 0° 97° (E) 5,045 - -61.4°
